Year,Month,Day,Hour,Minute,Value (Times are PST for temperature in C)
2014,10,25,00,00,7.30
2014,10,25,00,01,7.30
2014,10,25,00,02,7.30
2014,10,25,00,03,7.30
2014,10,25,00,04,7.30
2014,10,25,00,05,7.30
2014,10,25,00,06,7.30
2014,10,25,00,07,7.30
2014,10,25,00,08,7.40
2014,10,25,00,09,7.40
2014,10,25,00,10,7.40
2014,10,25,00,11,7.40
2014,10,25,00,12,7.40
2014,10,25,00,13,7.40
2014,10,25,00,14,7.40
2014,10,25,00,15,7.40
2014,10,25,00,16,7.40
2014,10,25,00,17,7.40
2014,10,25,00,18,7.40
2014,10,25,00,19,7.40
2014,10,25,00,20,7.40
2014,10,25,00,21,7.40
2014,10,25,00,22,7.40
2014,10,25,00,23,7.30
2014,10,25,00,24,7.30
2014,10,25,00,25,7.30
2014,10,25,00,26,7.30
2014,10,25,00,27,7.30
2014,10,25,00,28,7.30
2014,10,25,00,29,7.20
2014,10,25,00,30,7.20
2014,10,25,00,31,7.20
2014,10,25,00,32,7.20
2014,10,25,00,33,7.20
2014,10,25,00,34,7.20
2014,10,25,00,35,7.20
2014,10,25,00,36,7.20
2014,10,25,00,37,7.20
2014,10,25,00,38,7.20
2014,10,25,00,39,7.20
2014,10,25,00,40,7.20
2014,10,25,00,41,7.20
2014,10,25,00,42,7.20
2014,10,25,00,43,7.20
2014,10,25,00,44,7.20
2014,10,25,00,45,7.20
2014,10,25,00,46,7.20
2014,10,25,00,47,7.20
2014,10,25,00,48,7.20
2014,10,25,00,49,7.20
2014,10,25,00,50,7.20
2014,10,25,00,51,7.20
2014,10,25,00,52,7.20
2014,10,25,00,53,7.20
2014,10,25,00,54,7.20
2014,10,25,00,55,7.20
2014,10,25,00,56,7.20
2014,10,25,00,57,7.20
2014,10,25,00,58,7.20
2014,10,25,00,59,7.20
2014,10,25,01,00,7.20
2014,10,25,01,01,7.30
2014,10,25,01,02,7.30
2014,10,25,01,03,7.30
2014,10,25,01,04,7.30
2014,10,25,01,05,7.30
2014,10,25,01,06,7.30
2014,10,25,01,07,7.30
2014,10,25,01,08,7.30
2014,10,25,01,09,7.30
2014,10,25,01,10,7.40
2014,10,25,01,11,7.40
2014,10,25,01,12,7.40
2014,10,25,01,13,7.40
2014,10,25,01,14,7.40
2014,10,25,01,15,7.40
2014,10,25,01,16,7.40
2014,10,25,01,17,7.40
2014,10,25,01,18,7.50
2014,10,25,01,19,7.50
2014,10,25,01,20,7.50
2014,10,25,01,21,7.50
2014,10,25,01,22,7.60
2014,10,25,01,23,7.60
2014,10,25,01,24,7.60
2014,10,25,01,25,7.60
2014,10,25,01,26,7.60
2014,10,25,01,27,7.60
2014,10,25,01,28,7.60
2014,10,25,01,29,7.60
2014,10,25,01,30,7.60
2014,10,25,01,31,7.60
2014,10,25,01,32,7.60
2014,10,25,01,33,7.60
2014,10,25,01,34,7.60
2014,10,25,01,35,7.60
2014,10,25,01,36,7.60
2014,10,25,01,37,7.60
2014,10,25,01,38,7.60
2014,10,25,01,39,7.60
2014,10,25,01,40,7.60
2014,10,25,01,41,7.50
2014,10,25,01,42,7.50
2014,10,25,01,43,7.50
2014,10,25,01,44,7.50
2014,10,25,01,45,7.50
2014,10,25,01,46,7.50
2014,10,25,01,47,7.50
2014,10,25,01,48,7.50
2014,10,25,01,49,7.50
2014,10,25,01,50,7.50
2014,10,25,01,51,7.50
2014,10,25,01,52,7.50
2014,10,25,01,53,7.50
2014,10,25,01,54,7.40
2014,10,25,01,55,7.40
2014,10,25,01,56,7.40
2014,10,25,01,57,7.40
2014,10,25,01,58,7.40
2014,10,25,01,59,7.40
2014,10,25,02,00,7.40
2014,10,25,02,01,7.40
2014,10,25,02,02,7.40
2014,10,25,02,03,7.40
2014,10,25,02,04,7.40
2014,10,25,02,05,7.40
2014,10,25,02,06,7.40
2014,10,25,02,07,7.40
2014,10,25,02,08,7.40
2014,10,25,02,09,7.40
2014,10,25,02,10,7.40
2014,10,25,02,11,7.40
2014,10,25,02,12,7.40
2014,10,25,02,13,7.40
2014,10,25,02,14,7.40
2014,10,25,02,15,7.40
2014,10,25,02,16,7.40
2014,10,25,02,17,7.40
2014,10,25,02,18,7.40
2014,10,25,02,19,7.40
2014,10,25,02,20,7.40
2014,10,25,02,21,7.40
2014,10,25,02,22,7.40
2014,10,25,02,23,7.40
2014,10,25,02,24,7.40
2014,10,25,02,25,7.40
2014,10,25,02,26,7.40
2014,10,25,02,27,7.40
2014,10,25,02,28,7.40
2014,10,25,02,29,7.40
2014,10,25,02,30,7.40
2014,10,25,02,31,7.40
2014,10,25,02,32,7.40
2014,10,25,02,33,7.40
2014,10,25,02,34,7.40
2014,10,25,02,35,7.40
2014,10,25,02,36,7.40
2014,10,25,02,37,7.40
2014,10,25,02,38,7.40
2014,10,25,02,39,7.40
2014,10,25,02,40,7.40
2014,10,25,02,41,7.40
2014,10,25,02,42,7.40
2014,10,25,02,43,7.40
2014,10,25,02,44,7.40
2014,10,25,02,45,7.40
2014,10,25,02,46,7.40
2014,10,25,02,47,7.40
2014,10,25,02,48,7.40
2014,10,25,02,49,7.40
2014,10,25,02,50,7.40
2014,10,25,02,51,7.40
2014,10,25,02,52,7.40
2014,10,25,02,53,7.40
2014,10,25,02,54,7.40
2014,10,25,02,55,7.40
2014,10,25,02,56,7.40
2014,10,25,02,57,7.40
2014,10,25,02,58,7.40
2014,10,25,02,59,7.40
2014,10,25,03,00,7.40
2014,10,25,03,01,7.40
2014,10,25,03,02,7.40
2014,10,25,03,03,7.30
2014,10,25,03,04,7.40
2014,10,25,03,05,7.30
2014,10,25,03,06,7.30
2014,10,25,03,07,7.30
2014,10,25,03,08,7.30
2014,10,25,03,09,7.30
2014,10,25,03,10,7.30
2014,10,25,03,11,7.30
2014,10,25,03,12,7.30
2014,10,25,03,13,7.30
2014,10,25,03,14,7.30
2014,10,25,03,15,7.30
2014,10,25,03,16,7.30
2014,10,25,03,17,7.30
2014,10,25,03,18,7.30
2014,10,25,03,19,7.30
2014,10,25,03,20,7.30
2014,10,25,03,21,7.30
2014,10,25,03,22,7.30
2014,10,25,03,23,7.30
2014,10,25,03,24,7.30
2014,10,25,03,25,7.30
2014,10,25,03,26,7.30
2014,10,25,03,27,7.30
2014,10,25,03,28,7.30
2014,10,25,03,29,7.30
2014,10,25,03,30,7.30
2014,10,25,03,31,7.30
2014,10,25,03,32,7.30
2014,10,25,03,33,7.30
2014,10,25,03,34,7.30
2014,10,25,03,35,7.30
2014,10,25,03,36,7.30
2014,10,25,03,37,7.30
2014,10,25,03,38,7.30
2014,10,25,03,39,7.30
2014,10,25,03,40,7.30
2014,10,25,03,41,7.30
2014,10,25,03,42,7.30
2014,10,25,03,43,7.30
2014,10,25,03,44,7.30
2014,10,25,03,45,7.30
2014,10,25,03,46,7.30
2014,10,25,03,47,7.30
2014,10,25,03,48,7.30
2014,10,25,03,49,7.30
2014,10,25,03,50,7.30
2014,10,25,03,51,7.30
2014,10,25,03,52,7.30
2014,10,25,03,53,7.30
2014,10,25,03,54,7.30
2014,10,25,03,55,7.30
2014,10,25,03,56,7.30
2014,10,25,03,57,7.30
2014,10,25,03,58,7.30
2014,10,25,03,59,7.30
2014,10,25,04,00,7.30
2014,10,25,04,01,7.30
2014,10,25,04,02,7.30
2014,10,25,04,03,7.30
2014,10,25,04,04,7.30
2014,10,25,04,05,7.30
2014,10,25,04,06,7.30
2014,10,25,04,07,7.30
2014,10,25,04,08,7.30
2014,10,25,04,09,7.30
2014,10,25,04,10,7.20
2014,10,25,04,11,7.20
2014,10,25,04,12,7.20
2014,10,25,04,13,7.20
2014,10,25,04,14,7.20
2014,10,25,04,15,7.20
2014,10,25,04,16,7.20
2014,10,25,04,17,7.20
2014,10,25,04,18,7.20
2014,10,25,04,19,7.20
2014,10,25,04,20,7.20
2014,10,25,04,21,7.20
2014,10,25,04,22,7.20
2014,10,25,04,23,7.20
2014,10,25,04,24,7.20
2014,10,25,04,25,7.20
2014,10,25,04,26,7.20
2014,10,25,04,27,7.20
2014,10,25,04,28,7.10
2014,10,25,04,29,7.10
2014,10,25,04,30,7.10
2014,10,25,04,31,7.10
2014,10,25,04,32,7.10
2014,10,25,04,33,7.10
2014,10,25,04,34,7.10
2014,10,25,04,35,7.10
2014,10,25,04,36,7.10
2014,10,25,04,37,7.10
2014,10,25,04,38,7.10
2014,10,25,04,39,7.10
2014,10,25,04,40,7.10
2014,10,25,04,41,7.10
2014,10,25,04,42,7.10
2014,10,25,04,43,7.10
2014,10,25,04,44,7.10
2014,10,25,04,45,7.10
2014,10,25,04,46,7.10
2014,10,25,04,47,7.10
2014,10,25,04,48,7.10
2014,10,25,04,49,7.10
2014,10,25,04,50,7.10
2014,10,25,04,51,7.10
2014,10,25,04,52,7.10
2014,10,25,04,53,7.10
2014,10,25,04,54,7.10
2014,10,25,04,55,7.10
2014,10,25,04,56,7.10
2014,10,25,04,57,7.10
2014,10,25,04,58,7.10
2014,10,25,04,59,7.10
2014,10,25,05,00,7.10
2014,10,25,05,01,7.10
2014,10,25,05,02,7.10
2014,10,25,05,03,7.10
2014,10,25,05,04,7.10
2014,10,25,05,05,7.10
2014,10,25,05,06,7.10
2014,10,25,05,07,7.10
2014,10,25,05,08,7.10
2014,10,25,05,09,7.10
2014,10,25,05,10,7.10
2014,10,25,05,11,7.10
2014,10,25,05,12,7.10
2014,10,25,05,13,7.10
2014,10,25,05,14,7.00
2014,10,25,05,15,7.10
2014,10,25,05,16,7.00
2014,10,25,05,17,7.00
2014,10,25,05,18,7.00
2014,10,25,05,19,7.00
2014,10,25,05,20,7.00
2014,10,25,05,21,7.00
2014,10,25,05,22,7.00
2014,10,25,05,23,7.00
2014,10,25,05,24,7.00
2014,10,25,05,25,7.00
2014,10,25,05,26,7.00
2014,10,25,05,27,7.00
2014,10,25,05,28,7.00
2014,10,25,05,29,7.00
2014,10,25,05,30,7.00
2014,10,25,05,31,7.00
2014,10,25,05,32,7.00
2014,10,25,05,33,7.00
2014,10,25,05,34,7.00
2014,10,25,05,35,7.00
2014,10,25,05,36,7.00
2014,10,25,05,37,7.00
2014,10,25,05,38,7.00
2014,10,25,05,39,7.00
2014,10,25,05,40,7.00
2014,10,25,05,41,7.00
2014,10,25,05,42,7.00
2014,10,25,05,43,7.00
2014,10,25,05,44,7.00
2014,10,25,05,45,7.00
2014,10,25,05,46,7.00
2014,10,25,05,47,7.00
2014,10,25,05,48,7.00
2014,10,25,05,49,7.00
2014,10,25,05,50,7.00
2014,10,25,05,51,7.00
2014,10,25,05,52,7.00
2014,10,25,05,53,7.00
2014,10,25,05,54,7.00
2014,10,25,05,55,7.00
2014,10,25,05,56,7.00
2014,10,25,05,57,7.00
2014,10,25,05,58,6.90
2014,10,25,05,59,6.90
2014,10,25,06,00,6.90
2014,10,25,06,01,6.90
2014,10,25,06,02,6.90
2014,10,25,06,03,6.90
2014,10,25,06,04,6.90
2014,10,25,06,05,6.90
2014,10,25,06,06,6.90
2014,10,25,06,07,6.90
2014,10,25,06,08,6.90
2014,10,25,06,09,6.90
2014,10,25,06,10,6.90
2014,10,25,06,11,6.90
2014,10,25,06,12,6.90
2014,10,25,06,13,6.90
2014,10,25,06,14,6.90
2014,10,25,06,15,6.90
2014,10,25,06,16,6.90
2014,10,25,06,17,6.90
2014,10,25,06,18,6.90
2014,10,25,06,19,6.90
2014,10,25,06,20,6.90
2014,10,25,06,21,6.90
2014,10,25,06,22,6.90
2014,10,25,06,23,6.90
2014,10,25,06,24,6.90
2014,10,25,06,25,6.90
2014,10,25,06,26,6.90
2014,10,25,06,27,6.90
2014,10,25,06,28,6.90
2014,10,25,06,29,6.90
2014,10,25,06,30,6.90
2014,10,25,06,31,6.90
2014,10,25,06,32,6.90
2014,10,25,06,33,6.90
2014,10,25,06,34,6.90
2014,10,25,06,35,6.90
2014,10,25,06,36,6.90
2014,10,25,06,37,6.90
2014,10,25,06,38,6.90
2014,10,25,06,39,6.90
2014,10,25,06,40,6.90
2014,10,25,06,41,6.90
2014,10,25,06,42,6.90
2014,10,25,06,43,6.90
2014,10,25,06,44,6.90
2014,10,25,06,45,6.90
2014,10,25,06,46,6.90
2014,10,25,06,47,6.90
2014,10,25,06,48,6.90
2014,10,25,06,49,6.80
2014,10,25,06,50,6.80
2014,10,25,06,51,6.80
2014,10,25,06,52,6.80
2014,10,25,06,53,6.80
2014,10,25,06,54,6.80
2014,10,25,06,55,6.80
2014,10,25,06,56,6.80
2014,10,25,06,57,6.80
2014,10,25,06,58,6.80
2014,10,25,06,59,6.80
2014,10,25,07,00,6.80
2014,10,25,07,01,6.80
2014,10,25,07,02,6.80
2014,10,25,07,03,6.80
2014,10,25,07,04,6.80
2014,10,25,07,05,6.80
2014,10,25,07,06,6.80
2014,10,25,07,07,6.80
2014,10,25,07,08,6.80
2014,10,25,07,09,6.80
2014,10,25,07,10,6.80
2014,10,25,07,11,6.80
2014,10,25,07,12,6.80
2014,10,25,07,13,6.80
2014,10,25,07,14,6.80
2014,10,25,07,15,6.80
2014,10,25,07,16,6.70
2014,10,25,07,17,6.70
2014,10,25,07,18,6.70
2014,10,25,07,19,6.70
2014,10,25,07,20,6.70
2014,10,25,07,21,6.70
2014,10,25,07,22,6.70
2014,10,25,07,23,6.70
2014,10,25,07,24,6.70
2014,10,25,07,25,6.70
2014,10,25,07,26,6.70
2014,10,25,07,27,6.70
2014,10,25,07,28,6.70
2014,10,25,07,29,6.70
2014,10,25,07,30,6.70
2014,10,25,07,31,6.70
2014,10,25,07,32,6.70
2014,10,25,07,33,6.70
2014,10,25,07,34,6.70
2014,10,25,07,35,6.60
2014,10,25,07,36,6.60
2014,10,25,07,37,6.60
2014,10,25,07,38,6.60
2014,10,25,07,39,6.60
2014,10,25,07,40,6.50
2014,10,25,07,41,6.50
2014,10,25,07,42,6.50
2014,10,25,07,43,6.40
2014,10,25,07,44,6.40
2014,10,25,07,45,6.40
2014,10,25,07,46,6.40
2014,10,25,07,47,6.40
2014,10,25,07,48,6.30
2014,10,25,07,49,6.30
2014,10,25,07,50,6.30
2014,10,25,07,51,6.30
2014,10,25,07,52,6.30
2014,10,25,07,53,6.30
2014,10,25,07,54,6.20
2014,10,25,07,55,6.20
2014,10,25,07,56,6.20
2014,10,25,07,57,6.20
2014,10,25,07,58,6.20
2014,10,25,07,59,6.30
2014,10,25,08,00,6.30
2014,10,25,08,01,6.30
2014,10,25,08,02,6.30
2014,10,25,08,03,6.30
2014,10,25,08,04,6.30
2014,10,25,08,05,6.30
2014,10,25,08,06,6.30
2014,10,25,08,07,6.30
2014,10,25,08,08,6.30
2014,10,25,08,09,6.30
2014,10,25,08,10,6.30
2014,10,25,08,11,6.30
2014,10,25,08,12,6.30
2014,10,25,08,13,6.30
2014,10,25,08,14,6.30
2014,10,25,08,15,6.20
2014,10,25,08,16,6.20
2014,10,25,08,17,6.20
2014,10,25,08,18,6.20
2014,10,25,08,19,6.20
2014,10,25,08,20,6.20
2014,10,25,08,21,6.20
2014,10,25,08,22,6.10
2014,10,25,08,23,6.10
2014,10,25,08,24,6.10
2014,10,25,08,25,6.10
2014,10,25,08,26,6.10
2014,10,25,08,27,6.10
2014,10,25,08,28,6.00
2014,10,25,08,29,6.00
2014,10,25,08,30,6.00
2014,10,25,08,31,5.90
2014,10,25,08,32,5.90
2014,10,25,08,33,5.90
2014,10,25,08,34,5.90
2014,10,25,08,35,5.90
2014,10,25,08,36,5.90
2014,10,25,08,37,5.90
2014,10,25,08,38,5.90
2014,10,25,08,39,5.90
2014,10,25,08,40,5.90
2014,10,25,08,41,5.90
2014,10,25,08,42,5.90
2014,10,25,08,43,5.90
2014,10,25,08,44,5.80
2014,10,25,08,45,5.80
2014,10,25,08,46,5.80
2014,10,25,08,47,5.70
2014,10,25,08,48,5.70
2014,10,25,08,49,5.60
2014,10,25,08,50,5.60
2014,10,25,08,51,5.60
2014,10,25,08,52,5.50
2014,10,25,08,53,5.50
2014,10,25,08,54,5.40
2014,10,25,08,55,5.40
2014,10,25,08,56,5.40
2014,10,25,08,57,5.40
2014,10,25,08,58,5.30
2014,10,25,08,59,5.30
2014,10,25,09,00,5.30
2014,10,25,09,01,5.30
2014,10,25,09,02,5.30
2014,10,25,09,03,5.30
2014,10,25,09,04,5.30
2014,10,25,09,05,5.30
2014,10,25,09,06,5.30
2014,10,25,09,07,5.30
2014,10,25,09,08,5.20
2014,10,25,09,09,5.20
2014,10,25,09,10,5.20
2014,10,25,09,11,5.20
2014,10,25,09,12,5.20
2014,10,25,09,13,5.20
2014,10,25,09,14,5.10
2014,10,25,09,15,5.10
2014,10,25,09,16,5.10
2014,10,25,09,17,5.10
2014,10,25,09,18,5.10
2014,10,25,09,19,5.10
2014,10,25,09,20,5.10
2014,10,25,09,21,5.00
2014,10,25,09,22,5.00
2014,10,25,09,23,5.00
2014,10,25,09,24,4.90
2014,10,25,09,25,4.90
2014,10,25,09,26,4.90
2014,10,25,09,27,4.90
2014,10,25,09,28,4.90
2014,10,25,09,29,4.90
2014,10,25,09,30,4.90
2014,10,25,09,31,4.90
2014,10,25,09,32,4.90
2014,10,25,09,33,4.90
2014,10,25,09,34,4.90
2014,10,25,09,35,4.90
2014,10,25,09,36,4.90
2014,10,25,09,37,4.90
2014,10,25,09,38,4.80
2014,10,25,09,39,4.80
2014,10,25,09,40,4.80
2014,10,25,09,41,4.80
2014,10,25,09,42,4.80
2014,10,25,09,43,4.70
2014,10,25,09,44,4.70
2014,10,25,09,45,4.70
2014,10,25,09,46,4.70
2014,10,25,09,47,4.70
2014,10,25,09,48,4.70
2014,10,25,09,49,4.70
2014,10,25,09,50,4.70
2014,10,25,09,51,4.70
2014,10,25,09,52,4.70
2014,10,25,09,53,4.70
2014,10,25,09,54,4.70
2014,10,25,09,55,4.70
2014,10,25,09,56,4.70
2014,10,25,09,57,4.70
2014,10,25,09,58,4.70
2014,10,25,09,59,4.70
2014,10,25,10,00,4.70
2014,10,25,10,01,4.70
2014,10,25,10,02,4.70
2014,10,25,10,03,4.70
2014,10,25,10,04,4.80
2014,10,25,10,05,4.80
2014,10,25,10,06,4.70
2014,10,25,10,07,4.70
2014,10,25,10,08,4.70
2014,10,25,10,09,4.70
2014,10,25,10,10,4.70
2014,10,25,10,11,4.70
2014,10,25,10,12,4.70
2014,10,25,10,13,4.70
2014,10,25,10,14,4.70
2014,10,25,10,15,4.70
2014,10,25,10,16,4.70
2014,10,25,10,17,4.70
2014,10,25,10,18,4.70
2014,10,25,10,19,4.70
2014,10,25,10,20,4.70
2014,10,25,10,21,4.70
2014,10,25,10,22,4.70
2014,10,25,10,23,4.70
2014,10,25,10,24,4.80
2014,10,25,10,25,4.80
2014,10,25,10,26,4.80
2014,10,25,10,27,4.80
2014,10,25,10,28,4.90
2014,10,25,10,29,4.90
2014,10,25,10,30,4.90
2014,10,25,10,31,4.90
2014,10,25,10,32,5.00
2014,10,25,10,33,5.00
2014,10,25,10,34,5.00
2014,10,25,10,35,5.00
2014,10,25,10,36,5.00
2014,10,25,10,37,5.00
2014,10,25,10,38,5.10
2014,10,25,10,39,5.00
2014,10,25,10,40,5.10
2014,10,25,10,41,5.10
2014,10,25,10,42,5.10
2014,10,25,10,43,5.10
2014,10,25,10,44,5.10
2014,10,25,10,45,5.10
2014,10,25,10,46,5.00
2014,10,25,10,47,5.00
2014,10,25,10,48,5.00
2014,10,25,10,49,5.00
2014,10,25,10,50,5.00
2014,10,25,10,51,5.00
2014,10,25,10,52,5.00
2014,10,25,10,53,5.00
2014,10,25,10,54,5.00
2014,10,25,10,55,5.00
2014,10,25,10,56,5.10
2014,10,25,10,57,5.10
2014,10,25,10,58,5.10
2014,10,25,10,59,5.10
2014,10,25,11,00,5.10
2014,10,25,11,01,5.10
2014,10,25,11,02,5.10
2014,10,25,11,03,5.10
2014,10,25,11,04,5.10
2014,10,25,11,05,5.10
2014,10,25,11,06,5.10
2014,10,25,11,07,5.10
2014,10,25,11,08,5.10
2014,10,25,11,09,5.10
2014,10,25,11,10,5.10
2014,10,25,11,11,5.10
2014,10,25,11,12,5.10
2014,10,25,11,13,5.10
2014,10,25,11,14,5.10
2014,10,25,11,15,5.10
2014,10,25,11,16,5.10
2014,10,25,11,17,5.10
2014,10,25,11,18,5.10
2014,10,25,11,19,5.10
2014,10,25,11,20,5.10
2014,10,25,11,21,5.10
2014,10,25,11,22,5.10
2014,10,25,11,23,5.10
2014,10,25,11,24,5.20
2014,10,25,11,25,5.20
2014,10,25,11,26,5.20
2014,10,25,11,27,5.20
2014,10,25,11,28,5.20
2014,10,25,11,29,5.20
2014,10,25,11,30,5.20
2014,10,25,11,31,5.20
2014,10,25,11,32,5.30
2014,10,25,11,33,5.30
2014,10,25,11,34,5.30
2014,10,25,11,35,5.30
2014,10,25,11,36,5.30
2014,10,25,11,37,5.30
2014,10,25,11,38,5.30
2014,10,25,11,39,5.30
2014,10,25,11,40,5.40
2014,10,25,11,41,5.40
2014,10,25,11,42,5.40
2014,10,25,11,43,5.40
2014,10,25,11,44,5.40
2014,10,25,11,45,5.40
2014,10,25,11,46,5.40
2014,10,25,11,47,5.40
2014,10,25,11,48,5.40
2014,10,25,11,49,5.40
2014,10,25,11,50,5.40
2014,10,25,11,51,5.40
2014,10,25,11,52,5.40
2014,10,25,11,53,5.40
2014,10,25,11,54,5.40
2014,10,25,11,55,5.40
2014,10,25,11,56,5.50
2014,10,25,11,57,5.50
2014,10,25,11,58,5.50
2014,10,25,11,59,5.50
2014,10,25,12,00,5.50
2014,10,25,12,01,5.50
2014,10,25,12,02,5.50
2014,10,25,12,03,5.50
2014,10,25,12,04,5.50
2014,10,25,12,05,5.50
2014,10,25,12,06,5.50
2014,10,25,12,07,5.50
2014,10,25,12,08,5.50
2014,10,25,12,09,5.60
2014,10,25,12,10,5.60
2014,10,25,12,11,5.60
2014,10,25,12,12,5.60
2014,10,25,12,13,5.60
2014,10,25,12,14,5.60
2014,10,25,12,15,5.60
2014,10,25,12,16,5.60
2014,10,25,12,17,5.60
2014,10,25,12,18,5.70
2014,10,25,12,19,5.70
2014,10,25,12,20,5.70
2014,10,25,12,21,5.70
2014,10,25,12,22,5.70
2014,10,25,12,23,5.70
2014,10,25,12,24,5.70
2014,10,25,12,25,5.80
2014,10,25,12,26,5.80
2014,10,25,12,27,5.80
2014,10,25,12,28,5.80
2014,10,25,12,29,5.80
2014,10,25,12,30,5.80
2014,10,25,12,31,5.90
2014,10,25,12,32,5.90
2014,10,25,12,33,5.90
2014,10,25,12,34,5.90
2014,10,25,12,35,6.00
2014,10,25,12,36,6.00
2014,10,25,12,37,6.00
2014,10,25,12,38,6.10
2014,10,25,12,39,6.10
2014,10,25,12,40,6.10
2014,10,25,12,41,6.10
2014,10,25,12,42,6.10
2014,10,25,12,43,6.10
2014,10,25,12,44,6.20
2014,10,25,12,45,6.20
2014,10,25,12,46,6.20
2014,10,25,12,47,6.20
2014,10,25,12,48,6.20
2014,10,25,12,49,6.20
2014,10,25,12,50,6.20
2014,10,25,12,51,6.30
2014,10,25,12,52,6.30
2014,10,25,12,53,6.20
2014,10,25,12,54,6.30
2014,10,25,12,55,6.20
2014,10,25,12,56,6.20
2014,10,25,12,57,6.20
2014,10,25,12,58,6.20
2014,10,25,12,59,6.20
2014,10,25,13,00,6.20
2014,10,25,13,01,6.20
2014,10,25,13,02,6.20
2014,10,25,13,03,6.20
2014,10,25,13,04,6.20
2014,10,25,13,05,6.20
2014,10,25,13,06,6.20
2014,10,25,13,07,6.20
2014,10,25,13,08,6.20
2014,10,25,13,09,6.20
2014,10,25,13,10,6.20
2014,10,25,13,11,6.20
2014,10,25,13,12,6.20
2014,10,25,13,13,6.20
2014,10,25,13,14,6.20
2014,10,25,13,15,6.20
2014,10,25,13,16,6.20
2014,10,25,13,17,6.20
2014,10,25,13,18,6.20
2014,10,25,13,19,6.10
2014,10,25,13,20,6.10
2014,10,25,13,21,6.10
2014,10,25,13,22,6.10
2014,10,25,13,23,6.10
2014,10,25,13,24,6.10
2014,10,25,13,25,6.10
2014,10,25,13,26,6.10
2014,10,25,13,27,6.10
2014,10,25,13,28,6.10
2014,10,25,13,29,6.10
2014,10,25,13,30,6.10
2014,10,25,13,31,6.10
2014,10,25,13,32,6.10
2014,10,25,13,33,6.10
2014,10,25,13,34,6.10
2014,10,25,13,35,6.10
2014,10,25,13,36,6.10
2014,10,25,13,37,6.10
2014,10,25,13,38,6.10
2014,10,25,13,39,6.10
2014,10,25,13,40,6.10
2014,10,25,13,41,6.10
2014,10,25,13,42,6.10
2014,10,25,13,43,6.20
2014,10,25,13,44,6.10
2014,10,25,13,45,6.20
2014,10,25,13,46,6.20
2014,10,25,13,47,6.20
2014,10,25,13,48,6.20
2014,10,25,13,49,6.20
2014,10,25,13,50,6.20
2014,10,25,13,51,6.20
2014,10,25,13,52,6.20
2014,10,25,13,53,6.30
2014,10,25,13,54,6.30
2014,10,25,13,55,6.30
2014,10,25,13,56,6.30
2014,10,25,13,57,6.30
2014,10,25,13,58,6.30
2014,10,25,13,59,6.30
2014,10,25,14,00,6.30
2014,10,25,14,01,6.30
2014,10,25,14,02,6.30
2014,10,25,14,03,6.30
2014,10,25,14,04,6.30
2014,10,25,14,05,6.30
2014,10,25,14,06,6.30
2014,10,25,14,07,6.40
2014,10,25,14,08,6.40
2014,10,25,14,09,6.40
2014,10,25,14,10,6.40
2014,10,25,14,11,6.40
2014,10,25,14,12,6.40
2014,10,25,14,13,6.40
2014,10,25,14,14,6.40
2014,10,25,14,15,6.40
2014,10,25,14,16,6.40
2014,10,25,14,17,6.50
2014,10,25,14,18,6.50
2014,10,25,14,19,6.50
2014,10,25,14,20,6.50
2014,10,25,14,21,6.60
2014,10,25,14,22,6.60
2014,10,25,14,23,6.60
2014,10,25,14,24,6.60
2014,10,25,14,25,6.60
2014,10,25,14,26,6.60
2014,10,25,14,27,6.60
2014,10,25,14,28,6.60
2014,10,25,14,29,6.60
2014,10,25,14,30,6.60
2014,10,25,14,31,6.60
2014,10,25,14,32,6.60
2014,10,25,14,33,6.60
2014,10,25,14,34,6.60
2014,10,25,14,35,6.60
2014,10,25,14,36,6.60
2014,10,25,14,37,6.60
2014,10,25,14,38,6.60
2014,10,25,14,39,6.60
2014,10,25,14,40,6.60
2014,10,25,14,41,6.60
2014,10,25,14,42,6.60
2014,10,25,14,43,6.60
2014,10,25,14,44,6.60
2014,10,25,14,45,6.60
2014,10,25,14,46,6.60
2014,10,25,14,47,6.50
2014,10,25,14,48,6.50
2014,10,25,14,49,6.50
2014,10,25,14,50,6.50
2014,10,25,14,51,6.50
2014,10,25,14,52,6.50
2014,10,25,14,53,6.50
2014,10,25,14,54,6.50
2014,10,25,14,55,6.50
2014,10,25,14,56,6.50
2014,10,25,14,57,6.50
2014,10,25,14,58,6.50
2014,10,25,14,59,6.50
2014,10,25,15,00,6.60
2014,10,25,15,01,6.60
2014,10,25,15,02,6.60
2014,10,25,15,03,6.60
2014,10,25,15,04,6.60
2014,10,25,15,05,6.50
2014,10,25,15,06,6.50
2014,10,25,15,07,6.60
2014,10,25,15,08,6.60
2014,10,25,15,09,6.60
2014,10,25,15,10,6.60
2014,10,25,15,11,6.60
2014,10,25,15,12,6.60
2014,10,25,15,13,6.60
2014,10,25,15,14,6.60
2014,10,25,15,15,6.60
2014,10,25,15,16,6.60
2014,10,25,15,17,6.60
2014,10,25,15,18,6.60
2014,10,25,15,19,6.60
2014,10,25,15,20,6.60
2014,10,25,15,21,6.60
2014,10,25,15,22,6.60
2014,10,25,15,23,6.60
2014,10,25,15,24,6.60
2014,10,25,15,25,6.60
2014,10,25,15,26,6.60
2014,10,25,15,27,6.60
2014,10,25,15,28,6.60
2014,10,25,15,29,6.60
2014,10,25,15,30,6.60
2014,10,25,15,31,6.50
2014,10,25,15,32,6.60
2014,10,25,15,33,6.60
2014,10,25,15,34,6.60
2014,10,25,15,35,6.60
2014,10,25,15,36,6.60
2014,10,25,15,37,6.50
2014,10,25,15,38,6.60
2014,10,25,15,39,6.60
2014,10,25,15,40,6.50
2014,10,25,15,41,6.50
2014,10,25,15,42,6.50
2014,10,25,15,43,6.50
2014,10,25,15,44,6.60
2014,10,25,15,45,6.50
2014,10,25,15,46,6.60
2014,10,25,15,47,6.50
2014,10,25,15,48,6.60
2014,10,25,15,49,6.50
2014,10,25,15,50,6.60
2014,10,25,15,51,6.60
2014,10,25,15,52,6.60
2014,10,25,15,53,6.60
2014,10,25,15,54,6.60
2014,10,25,15,55,6.60
2014,10,25,15,56,6.60
2014,10,25,15,57,6.50
2014,10,25,15,58,6.50
2014,10,25,15,59,6.50
2014,10,25,16,00,6.50
2014,10,25,16,01,6.50
2014,10,25,16,02,6.50
2014,10,25,16,03,6.40
2014,10,25,16,04,6.50
2014,10,25,16,05,6.50
2014,10,25,16,06,6.50
2014,10,25,16,07,6.50
2014,10,25,16,08,6.50
2014,10,25,16,09,6.40
2014,10,25,16,10,6.40
2014,10,25,16,11,6.40
2014,10,25,16,12,6.40
2014,10,25,16,13,6.40
2014,10,25,16,14,6.50
2014,10,25,16,15,6.50
2014,10,25,16,16,6.50
2014,10,25,16,17,6.50
2014,10,25,16,18,6.50
2014,10,25,16,19,6.50
2014,10,25,16,20,6.50
2014,10,25,16,21,6.50
2014,10,25,16,22,6.60
2014,10,25,16,23,6.60
2014,10,25,16,24,6.60
2014,10,25,16,25,6.60
2014,10,25,16,26,6.60
2014,10,25,16,27,6.60
2014,10,25,16,28,6.60
2014,10,25,16,29,6.60
2014,10,25,16,30,6.60
2014,10,25,16,31,6.60
2014,10,25,16,32,6.60
2014,10,25,16,33,6.60
2014,10,25,16,34,6.60
2014,10,25,16,35,6.60
2014,10,25,16,36,6.60
2014,10,25,16,37,6.60
2014,10,25,16,38,6.60
2014,10,25,16,39,6.60
2014,10,25,16,40,6.60
2014,10,25,16,41,6.60
2014,10,25,16,42,6.60
2014,10,25,16,43,6.60
2014,10,25,16,44,6.60
2014,10,25,16,45,6.60
2014,10,25,16,46,6.60
2014,10,25,16,47,6.60
2014,10,25,16,48,6.60
2014,10,25,16,49,6.60
2014,10,25,16,50,6.60
2014,10,25,16,51,6.60
2014,10,25,16,52,6.60
2014,10,25,16,53,6.60
2014,10,25,16,54,6.60
2014,10,25,16,55,6.60
2014,10,25,16,56,6.60
2014,10,25,16,57,6.60
2014,10,25,16,58,6.60
2014,10,25,16,59,6.60
2014,10,25,17,00,6.60
2014,10,25,17,01,6.60
2014,10,25,17,02,6.60
2014,10,25,17,03,6.60
2014,10,25,17,04,6.60
2014,10,25,17,05,6.60
2014,10,25,17,06,6.60
2014,10,25,17,07,6.60
2014,10,25,17,08,6.60
2014,10,25,17,09,6.60
2014,10,25,17,10,6.60
2014,10,25,17,11,6.60
2014,10,25,17,12,6.60
2014,10,25,17,13,6.60
2014,10,25,17,14,6.60
2014,10,25,17,15,6.60
2014,10,25,17,16,6.60
2014,10,25,17,17,6.60
2014,10,25,17,18,6.60
2014,10,25,17,19,6.60
2014,10,25,17,20,6.60
2014,10,25,17,21,6.60
2014,10,25,17,22,6.60
2014,10,25,17,23,6.60
2014,10,25,17,24,6.60
2014,10,25,17,25,6.60
2014,10,25,17,26,6.60
2014,10,25,17,27,6.60
2014,10,25,17,28,6.60
2014,10,25,17,29,6.60
2014,10,25,17,30,6.60
2014,10,25,17,31,6.60
2014,10,25,17,32,6.60
2014,10,25,17,33,6.60
2014,10,25,17,34,6.60
2014,10,25,17,35,6.60
2014,10,25,17,36,6.60
2014,10,25,17,37,6.60
2014,10,25,17,38,6.60
2014,10,25,17,39,6.60
2014,10,25,17,40,6.60
2014,10,25,17,41,6.60
2014,10,25,17,42,6.60
2014,10,25,17,43,6.60
2014,10,25,17,44,6.60
2014,10,25,17,45,6.60
2014,10,25,17,46,6.60
2014,10,25,17,47,6.60
2014,10,25,17,48,6.60
2014,10,25,17,49,6.60
2014,10,25,17,50,6.60
2014,10,25,17,51,6.60
2014,10,25,17,52,6.60
2014,10,25,17,53,6.60
2014,10,25,17,54,6.60
2014,10,25,17,55,6.60
2014,10,25,17,56,6.60
2014,10,25,17,57,6.60
2014,10,25,17,58,6.60
2014,10,25,17,59,6.60
2014,10,25,18,00,6.60
2014,10,25,18,01,6.60
2014,10,25,18,02,6.60
2014,10,25,18,03,6.60
2014,10,25,18,04,6.60
2014,10,25,18,05,6.50
2014,10,25,18,06,6.50